When you browse on this site, cookies collect data to enhance your experience and personalize the content and advertising you see.
Visit our Privacy Policy to learn more. By continuing to use the site, you agree to this use of cookies and data.
  • In Austria
  • List of Countries
  • For 7 days
  • Water Temperature
  • Satellite Maps
  • Weather Map
  • News
  • Weather Widgets
  • user-avatar
    Login

    Hourly Weather Rivne

    Today, 21 February, Thursday

    Time Temperature Precipitation Wind Pressure Humidity
    00:00 +5°C° 0 mm 4 mps 757 mmHg 74%
    01:00 +5°C° 0 mm 4 mps 757 mmHg 75%
    02:00 +4°C° 0 mm 3 mps 757 mmHg 78%
    03:00 +4°C° 0 mm 3 mps 757 mmHg 78%
    04:00 +3°C° 0 mm 4 mps 757 mmHg 78%
    05:00 +3°C° 0 mm 4 mps 757 mmHg 78%
    06:00 +3°C° 0 mm 4 mps 757 mmHg 78%
    07:00 +3°C° 0 mm 4 mps 758 mmHg 78%
    08:00 +3°C° 0 mm 5 mps 758 mmHg 74%
    09:00 +4°C° 0 mm 6 mps 758 mmHg 65%
    10:00 +5°C° 0 mm 7 mps 758 mmHg 57%
    11:00 +6°C° 0 mm 8 mps 758 mmHg 48%
    12:00 +7°C° 0 mm 8 mps 758 mmHg 47%
    13:00 +7°C° 0 mm 8 mps 758 mmHg 47%
    14:00 +9°C° 0 mm 8 mps 757 mmHg 44%
    15:00 +7°C° 0 mm 8 mps 757 mmHg 46%
    16:00 +8°C° 0 mm 7 mps 757 mmHg 48%
    17:00 +8°C° 0 mm 6 mps 757 mmHg 49%
    18:00 +7°C° 0 mm 5 mps 757 mmHg 53%
    19:00 +6°C° 0 mm 4 mps 757 mmHg 57%
    20:00 +5°C° 0 mm 3 mps 757 mmHg 61%
    21:00 +5°C° 0 mm 3 mps 757 mmHg 62%
    22:00 +5°C° 0 mm 3 mps 757 mmHg 63%
    23:00 +5°C° 0 mm 3 mps 757 mmHg 65%

    Tomorrow, 22 February, Friday

    Time Temperature Precipitation Wind Pressure Humidity
    00:00 +4°C° 0 mm 3 mps 757 mmHg 65%
    01:00 +4°C° 0 mm 3 mps 756 mmHg 66%
    02:00 +4°C° 0 mm 3 mps 756 mmHg 67%
    03:00 +4°C° 0 mm 3 mps 756 mmHg 67%
    04:00 +4°C° 0 mm 3 mps 755 mmHg 66%
    05:00 +4°C° 0 mm 3 mps 754 mmHg 66%
    06:00 +4°C° 0.1 mm 3 mps 754 mmHg 66%
    07:00 +4°C° 0.1 mm 3 mps 754 mmHg 66%
    08:00 +4°C° 0.1 mm 3 mps 753 mmHg 66%
    09:00 +4°C° 0.2 mm 3 mps 753 mmHg 66%
    10:00 +5°C° 0.2 mm 3 mps 753 mmHg 65%
    11:00 +6°C° 0.2 mm 2 mps 753 mmHg 64%
    12:00 +3°C° 0.7 mm 5 mps 753 mmHg 70%
    13:00 0°C° 0.7 mm 7 mps 754 mmHg 76%
    14:00 -1°C° 0.7 mm 9 mps 754 mmHg 83%
    15:00 -3°C° 0.3 mm 9 mps 755 mmHg 80%
    16:00 -5°C° 0.3 mm 9 mps 756 mmHg 77%
    17:00 -7°C° 0.3 mm 10 mps 756 mmHg 75%
    18:00 -7°C° 0 mm 10 mps 758 mmHg 70%
    19:00 -8°C° 0 mm 10 mps 759 mmHg 66%
    20:00 -8°C° 0 mm 10 mps 760 mmHg 61%
    21:00 -9°C° 0 mm 10 mps 760 mmHg 60%
    22:00 -9°C° 0 mm 9 mps 760 mmHg 58%
    23:00 -10°C° 0 mm 9 mps 761 mmHg 57%

    Day after tomorrow, 23 February, Saturday

    Time Temperature Precipitation Wind Pressure Humidity
    00:00 -10°C° 0 mm 9 mps 761 mmHg 57%
    01:00 -10°C° 0 mm 9 mps 761 mmHg 58%
    02:00 -10°C° 0 mm 8 mps 762 mmHg 59%
    03:00 -11°C° 0 mm 8 mps 762 mmHg 59%
    04:00 -11°C° 0 mm 8 mps 762 mmHg 59%
    05:00 -11°C° 0 mm 8 mps 763 mmHg 59%
    06:00 -11°C° 0 mm 9 mps 763 mmHg 60%
    07:00 -10°C° 0 mm 9 mps 764 mmHg 61%
    08:00 -10°C° 0 mm 9 mps 764 mmHg 61%
    09:00 -10°C° 0 mm 9 mps 765 mmHg 59%
    10:00 -8°C° 0 mm 8 mps 765 mmHg 56%
    11:00 -7°C° 0 mm 8 mps 765 mmHg 54%
    12:00 -7°C° 0 mm 8 mps 765 mmHg 54%
    13:00 -7°C° 0 mm 8 mps 765 mmHg 54%
    14:00 -7°C° 0 mm 8 mps 766 mmHg 54%
    15:00 -7°C° 0 mm 7 mps 766 mmHg 55%
    16:00 -7°C° 0 mm 7 mps 766 mmHg 56%
    17:00 -8°C° 0 mm 7 mps 766 mmHg 57%
    18:00 -8°C° 0 mm 7 mps 766 mmHg 60%
    19:00 -8°C° 0 mm 6 mps 767 mmHg 62%
    20:00 -9°C° 0 mm 6 mps 767 mmHg 65%
    21:00 -9°C° 0 mm 6 mps 767 mmHg 66%
    22:00 -8°C° 0 mm 5 mps 768 mmHg 68%
    23:00 -8°C° 0 mm 5 mps 768 mmHg 69%

    24 February, Sunday

    Time Temperature Precipitation Wind Pressure Humidity
    00:00 -8°C° 0 mm 5 mps 768 mmHg 69%
    01:00 -10°C° 0 mm 5 mps 768 mmHg 69%
    02:00 -10°C° 0 mm 5 mps 768 mmHg 69%
    03:00 -10°C° 0 mm 5 mps 768 mmHg 70%
    04:00 -10°C° 0 mm 5 mps 768 mmHg 71%
    05:00 -10°C° 0 mm 5 mps 768 mmHg 72%
    06:00 -10°C° 0 mm 5 mps 768 mmHg 71%
    07:00 -10°C° 0 mm 5 mps 768 mmHg 71%
    08:00 -10°C° 0 mm 5 mps 769 mmHg 70%
    09:00 -8°C° 0 mm 5 mps 769 mmHg 67%
    10:00 -7°C° 0 mm 5 mps 769 mmHg 64%
    11:00 -6°C° 0 mm 5 mps 769 mmHg 60%
    12:00 -5°C° 0 mm 5 mps 769 mmHg 59%
    13:00 -4°C° 0 mm 4 mps 769 mmHg 58%
    14:00 -3°C° 0 mm 4 mps 769 mmHg 56%
    15:00 -3°C° 0 mm 4 mps 769 mmHg 58%
    16:00 -3°C° 0 mm 4 mps 769 mmHg 60%
    17:00 -3°C° 0 mm 4 mps 768 mmHg 62%
    18:00 -4°C° 0 mm 4 mps 769 mmHg 65%
    19:00 -5°C° 0 mm 3 mps 769 mmHg 69%
    20:00 -5°C° 0 mm 3 mps 769 mmHg 72%
    21:00 -5°C° 0 mm 3 mps 769 mmHg 71%
    22:00 -4°C° 0 mm 2 mps 770 mmHg 70%
    23:00 -5°C° 0 mm 2 mps 770 mmHg 70%

    25 February, Monday

    Time Temperature Precipitation Wind Pressure Humidity
    00:00 -4°C° 0 mm 2 mps 770 mmHg 67%
    01:00 -4°C° 0 mm 2 mps 770 mmHg 65%
    02:00 -4°C° 0 mm 2 mps 770 mmHg 63%
    03:00 -4°C° 0 mm 2 mps 769 mmHg 61%
    04:00 -4°C° 0 mm 2 mps 769 mmHg 60%
    05:00 -4°C° 0 mm 2 mps 769 mmHg 58%
    06:00 -4°C° 0 mm 2 mps 769 mmHg 56%
    07:00 -4°C° 0 mm 3 mps 769 mmHg 54%
    08:00 -4°C° 0 mm 3 mps 769 mmHg 52%
    09:00 -1°C° 0 mm 3 mps 768 mmHg 47%
    10:00 -1°C° 0 mm 4 mps 768 mmHg 41%
    11:00 +1°C° 0 mm 4 mps 768 mmHg 36%
    12:00 +3°C° 0 mm 4 mps 767 mmHg 37%
    13:00 +3°C° 0 mm 5 mps 767 mmHg 37%
    14:00 +3°C° 0 mm 5 mps 766 mmHg 38%
    15:00 +4°C° 0 mm 4 mps 765 mmHg 44%
    16:00 +3°C° 0 mm 4 mps 765 mmHg 50%
    17:00 +3°C° 0 mm 3 mps 764 mmHg 56%
    18:00 +2°C° 0 mm 3 mps 764 mmHg 60%
    19:00 +1°C° 0 mm 3 mps 764 mmHg 64%
    20:00 0°C° 0 mm 3 mps 763 mmHg 69%
    21:00 -1°C° 0 mm 4 mps 763 mmHg 72%
    22:00 0°C° 0 mm 4 mps 763 mmHg 75%
    23:00 0°C° 0 mm 4 mps 763 mmHg 78%

    26 February, Tuesday

    Time Temperature Precipitation Wind Pressure Humidity
    00:00 0°C° 0 mm 5 mps 762 mmHg 81%
    01:00 -1°C° 0 mm 5 mps 762 mmHg 84%
    02:00 -2°C° 0 mm 6 mps 761 mmHg 87%
    03:00 -2°C° 0 mm 6 mps 761 mmHg 87%
    04:00 -2°C° 0 mm 6 mps 760 mmHg 87%
    05:00 -2°C° 0 mm 6 mps 760 mmHg 86%
    06:00 -2°C° 0 mm 6 mps 759 mmHg 85%
    07:00 -2°C° 0 mm 6 mps 759 mmHg 84%
    08:00 -2°C° 0 mm 6 mps 759 mmHg 83%
    09:00 -1°C° 0 mm 6 mps 758 mmHg 78%
    10:00 +1°C° 0 mm 6 mps 758 mmHg 73%
    11:00 +2°C° 0 mm 6 mps 757 mmHg 68%
    12:00 +3°C° 0 mm 6 mps 756 mmHg 67%
    13:00 +3°C° 0 mm 6 mps 756 mmHg 67%
    14:00 +4°C° 0 mm 6 mps 755 mmHg 66%
    15:00 +4°C° 0 mm 7 mps 754 mmHg 69%
    16:00 +4°C° 0 mm 7 mps 754 mmHg 71%
    17:00 +3°C° 0 mm 7 mps 754 mmHg 74%
    18:00 +3°C° 0 mm 7 mps 753 mmHg 75%
    19:00 +2°C° 0 mm 6 mps 753 mmHg 77%
    20:00 +2°C° 0 mm 6 mps 753 mmHg 79%
    21:00 +2°C° 0 mm 6 mps 753 mmHg 80%
    22:00 +1°C° 0 mm 6 mps 752 mmHg 81%
    23:00 +1°C° 0 mm 6 mps 751 mmHg 82%
    Show more